Location: Dittelbrunn
(50.0738°N, 10.2196°E)
Time: 05:25:24
(UTC+00:00)

SPOT 1/Viking Rocket - Pass Details

Date: 18 September 2020
Orbit: 777 x 794 km, 98.5° (Epoch: 20 October)

Event Time Altitude Azimuth Distance (km) Brightness Sun altitude
Exits shadow 19:33:46 33° 78° (ENE) 1,295 4.3 -20.5°
Maximum altitude 19:34:21 34° 64° (ENE) 1,270 4.3 -20.6°
Drops below altitude 10° 19:39:00 10° 0° (N) 2,352 6.4 -21.2°
Sets 19:41:29 0° 352° (N) 3,282 7.3 -21.6°
